This demonstration page uses our WeatherBlox Daily Observations layout. Learn more.

Left ArrowRight Arrow

Hourly Observations for July 3, 2022

Temp ( °F °C ) Dew Point ( °F °C ) Humidity (%) Winds ( mph kmh ) Pressure ( in mb ) Visibility ( mi km ) Precip ( " mm )
12:56 am 00:56 Clear 67 19.4 65 18.3 93 93 ESE 5 7 30.01 1016 10 16 0.00 0.00
1:56 am 01:56 Clear 65 18.3 64 17.8 97 97 S 5 7 30.01 1016 10 16 0.00 0.00
2:56 am 02:56 Clear with Mist and Fog 65 18.3 64 17.8 97 97 S 5 7 30.00 1016 4 6 0.00 0.00
3:11 am 03:11 Clear with Mist and Fog 64 18 64 18 100 100 SSE 3 6 29.99 1016 2 3 0.00 0.00
3:19 am 03:19 Clear with Mist and Fog 64 18 64 18 100 100 SSE 3 6 30.00 1016 3 4 0.00 0.00
3:27 am 03:27 Clear with Mist and Fog 64 18 63 17 94 94 SE 5 7 30.00 1016 3 5 0.00 0.00
3:56 am 03:56 Clear with Mist and Fog 64 17.8 64 17.8 100 100 SSE 3 6 30.00 1016 3 5 0.00 0.00
4:24 am 04:24 Partly Cloudy with Mist and Fog 64 18 63 17 94 94 NE 3 6 29.99 1016 3 5 0.00 0.00
4:32 am 04:32 Mostly Cloudy with Mist and Fog 63 17 63 17 100 100 ENE 3 6 30.00 1016 4 6 0.00 0.00
4:40 am 04:40 Mostly Cloudy with Mist and Fog 63 17 63 17 100 100 E 6 9 30.00 1016 4 6 0.00 0.00
4:56 am 04:56 Cloudy with Mist and Fog 66 18.9 65 18.3 96 96 ESE 5 7 30.00 1016 4 6 0.00 0.00
5:03 am 05:03 Cloudy with Mist and Fog 66 19 66 19 100 100 SE 3 6 29.98 1015 3 5 0.00 0.00
5:11 am 05:11 Cloudy with Mist and Fog 66 19 66 19 100 100 S 5 7 29.98 1015 2 3 0.00 0.00
5:17 am 05:17 Cloudy with Mist and Fog 66 19 66 19 100 100 S 7 11 29.98 1015 1 1 0.00 0.00
5:26 am 05:26 Cloudy with Fog 66 19 66 19 100 100 S 9 15 29.98 1015 1 1 0.00 0.00
5:34 am 05:34 Cloudy with Fog 66 19 66 19 100 100 S 9 15 29.98 1015 0 0 0.00 0.00
5:56 am 05:56 Cloudy with Fog 68 20 67 19.4 96 96 S 8 13 29.99 1016 1 1 0.00 0.00
6:12 am 06:12 Cloudy with Fog 68 20 66 19 94 94 SSE 8 13 29.97 1015 0 0 0.00 0.00
6:22 am 06:22 Cloudy with Fog 68 20 66 19 94 94 SSE 9 15 29.97 1015 1 1 0.00 0.00
6:56 am 06:56 Cloudy with Fog 68 20 68 20 100 100 SSE 13 20 29.98 1015 1 1 0.00 0.00
7:15 am 07:15 Cloudy with Mist and Fog 70 21 68 20 94 94 SSE 9 15 29.96 1015 1 1 0.00 0.00
7:25 am 07:25 Cloudy with Fog 70 21 68 20 94 94 SSE 8 13 29.96 1015 1 1 0.00 0.00
7:56 am 07:56 Cloudy with Fog 69 20.6 69 20.6 100 100 SSE 10 17 29.98 1015 1 1 0.00 0.00
8:02 am 08:02 Cloudy with Mist and Fog 70 21 70 21 100 100 S 12 19 29.95 1014 1 2 0.00 0.00
8:23 am 08:23 Cloudy with Mist and Fog 70 21 70 21 100 100 S 13 20 29.95 1014 2 3 0.00 0.00
8:31 am 08:31 Cloudy with Mist and Fog 70 21 70 21 100 100 SSE 13 20 29.95 1014 2 3 0.00 0.00
8:41 am 08:41 Cloudy with Mist and Fog 70 21 70 21 100 100 S 13 20 29.95 1014 3 5 0.00 0.00
8:56 am 08:56 Cloudy with Mist and Fog 70 21.1 70 21.1 100 100 SSE 14 22 29.98 1015 4 6 0.00 0.00
9:36 am 09:36 Cloudy 72 22 72 22 100 100 SSE 13 20 29.94 1014 8 13 0.00 0.00
9:56 am 09:56 Cloudy 73 22.8 71 21.7 94 94 SE 14 22 29.98 1015 9 14 0.00 0.00
10:56 am 10:56 Cloudy 77 25 71 21.7 82 82 SE 16 26 29.97 1015 10 16 0.00 0.00
11:56 am 11:56 Cloudy 79 26.1 72 22.2 79 79 SSE 13 20 29.96 1015 10 16 0.00 0.00
12:39 pm 12:39 Cloudy 81 27 72 22 74 74 SSE 14 22 29.88 1012 10 16 0.00 0.00
12:56 pm 12:56 Cloudy 82 27.8 72 22.2 72 72 SSE 13 20 29.95 1014 10 16 0.00 0.00
1:56 pm 13:56 Mostly Cloudy 85 29.4 73 22.8 68 68 SE 16 26 29.93 1014 10 16 0.00 0.00
2:43 pm 14:43 Cloudy 86 30 73 23 66 66 SE 17 28 29.83 1010 10 16 0.00 0.00
2:56 pm 14:56 Mostly Cloudy 87 30.6 74 23.3 65 65 ESE 17 28 29.91 1013 10 16 0.00 0.00
3:56 pm 15:56 Partly Cloudy 88 31.1 73 22.8 61 61 SE 18 30 29.90 1013 10 16 0.00 0.00
4:56 pm 16:56 Partly Cloudy 88 31.1 73 22.8 61 61 SE 18 30 29.88 1012 10 16 0.00 0.00
5:56 pm 17:56 Mostly Sunny 87 30.6 73 22.8 63 63 SE 18 30 29.86 1011 10 16 0.00 0.00
6:56 pm 18:56 Sunny 85 29.4 74 23.3 70 70 SE 18 30 29.83 1010 10 16 0.00 0.00
7:56 pm 19:56 Sunny 82 27.8 74 23.3 77 77 ESE 18 30 29.83 1010 10 16 0.00 0.00
8:56 pm 20:56 Sunny 80 26.7 75 23.9 85 85 ESE 16 26 29.85 1011 10 16 0.00 0.00
9:42 pm 21:42 Mostly Clear with Nearby Thunderstorms 81 27 75 24 84 84 SE 26 43 29.78 1008 10 16 0.00 0.00
9:56 pm 21:56 Partly Cloudy with Light Rain 75 23.9 68 20 79 79 SE 21 33 29.86 1011 10 16 0.00 0.00
10:07 pm 22:07 Partly Cloudy with Nearby Thunderstorms 73 23 70 21 89 89 SE 12 19 29.82 1010 10 16 0.00 0.00
10:22 pm 22:22 Mostly Cloudy with Light Rain 73 23 70 21 89 89 SE 12 19 29.80 1009 10 16 0.00 0.00
10:30 pm 22:30 Cloudy with Nearby Thunderstorms 73 23 70 21 89 89 SE 13 20 29.80 1009 10 16 0.00 0.00
10:56 pm 22:56 Cloudy with Thunderstorms 75 23.9 72 22.2 90 90 S 10 17 29.88 1012 10 16 0.03 0.76
11:18 pm 23:18 Cloudy with Strong Thunderstorms 72 22 70 21 94 94 NW 17 28 29.88 1012 9 14 0.20 5.08
11:31 pm 23:31 Cloudy with Strong Thunderstorms 72 22 70 21 94 94 undefined N/A N/A 1 2 0.50 12.70
11:43 pm 23:43 Cloudy with Thunderstorms 72 22 70 21 94 94 SW 13 20 29.88 1012 10 16 0.54 13.72
11:56 pm 23:56 Cloudy with Thunderstorms 73 22.8 71 21.7 94 94 SSW 3 6 29.91 1013 10 16 0.55 13.97

Powered by AerisWeather